Location: Newark
(47.0000°N, 7.6833°E)
Time: 07:33:18
(UTC+00:00)

Envisat - Pass Details

Date: 30 August 2019
Orbit: 764 x 766 km, 98.1° (Epoch: 20 September)

Event Time Altitude Azimuth Distance (km) Brightness Sun altitude
Rises 19:03:24 0° 213° (SSW) 3,222 6.4 -8.9°
Reaches altitude 10° 19:06:40 10° 236° (SW) 2,301 5.9 -9.4°
Maximum altitude 19:09:37 15° 272° (W) 1,955 6.2 -9.8°
Drops below altitude 10° 19:12:35 10° 308° (NW) 2,311 7.0 -10.3°
Sets 19:15:53 0° 330° (NNW) 3,243 7.2 -10.8°
